User: anonymous   Login
Location: Unspecified
(0.0000°N, 0.0000°E)
Time: 04:21:23
(UTC+01:00)
Language:

NOSS 3-3 (A) - Orbit

View from above orbital plane
View from above orbital plane
View from above satellite
View from above satellite

Ground track
Ground track

The orbit data is extracted from the following two-line orbital elements,

1 28537U 05004A   14316.20302890 0.00000000  00000-0  00000-0 0    06
2 28537  63.4307  83.4552 0188000 359.0950   0.9050 13.40660968    02
Epoch (UTC): 12 November 2014 04:52:21
Eccentricity: 0.0188000
inclination: 63.4307°
perigee height: 966 km
apogee height: 1247 km
right ascension of ascending node: 83.4552°
argument of perigee: 359.0950°
revolutions per day: 13.40660968
mean anomaly at epoch: 0.9050°
orbit number at epoch: 0

The dashed part of the orbit path shows where the satellite is in the earth's shadow,  

DLR